Regional Weather Roundup
Issued by NWS

Home | Current Version | Previous Version | Text Only | Print | Product List | Glossary On
Versions: 1 2 3 4 5 6 7 8 9 10 11 12 13 14 15 16 17 18 19 20 21 22 23 24 25 26 27 28 29 30 31 32 33 34 35 36 37 38 39 40 41 42 43 44 45 46 47 48 49 50
000
ASUS43 KTOP 290808
RWRKS

WEATHER ROUNDUP FOR KANSAS
NATIONAL WEATHER SERVICE GOODLAND KS
200 AM CST SAT NOV 29 2014

NOTE:  "FAIR" INDICATES FEW OR NO CLOUDS BELOW 12,000 FEET WITH NO
SIGNIFICANT WEATHER AND/OR OBSTRUCTIONS TO VISIBILITY.

KSZ001>006-013>018-027>032-041>047-290900-
NORTHWEST KANSAS

CITY           SKY/WX    TMP DP  RH WIND       PRES   REMARKS
GOODLAND       CLOUDY    46  17  31 W15       29.67F
HAYS           CLOUDY    36  21  55 CALM      29.64F
HILL CITY      MOCLDY    33  19  56 SW3       29.63F
RUSSELL        CLOUDY    39  31  72 S9        29.63F
$$

KSZ061>065-074>080-084>089-290900-
SOUTHWEST KANSAS

CITY           SKY/WX    TMP DP  RH WIND       PRES   REMARKS
DODGE CITY     MOCLDY    47  28  47 SW12      29.67F
ELKHART          N/A     52  11  19 W12         N/A
GARDEN CITY    CLOUDY    39  24  55 W5        29.68F
GREAT BEND     MOCLDY    32  23  69 CALM      29.66F
LIBERAL        CLOUDY    39  16  38 W9        29.71F
PRATT          CLEAR     36  32  87 S5        29.67S
$$

KSZ066>073-081>083-090>101-290900-
SOUTHEAST KANSAS

CITY           SKY/WX    TMP DP  RH WIND       PRES   REMARKS
CHANUTE        CLOUDY    51  46  83 S12       29.76F
COFFEYVILLE    MOCLDY    54  47  77 S13       29.76F
HUTCHINSON     MOCLDY    41  37  86 SE8       29.67F
MEDICINE LODGE   N/A     40  37  89 CALM      29.66F
NEWTON         PTCLDY    43  36  75 SE9       29.70F
PARSONS        CLOUDY    53  47  79 S7        29.77F
WICHITA INTL   MOCLDY    46  40  79 S9        29.68F
WICHITA JABRA  MOCLDY    47  41  80 S9        29.69F
WICHITA MCCONL MOCLDY    45  45 100 S9        29.69F
WINFIELD       MOCLDY    48  43  82 SE6       29.71F
$$

KSZ007>012-019>026-033>040-048>060-102>105-290900-
NORTHEAST KANSAS

CITY           SKY/WX    TMP DP  RH WIND       PRES   REMARKS
CONCORDIA      CLOUDY    46  34  62 S6        29.64F
EMPORIA        MOCLDY    47  41  80 S17       29.69F
LAWRENCE       CLOUDY    52  40  63 SW7       29.70F
MANHATTAN      CLOUDY    45  39  79 SW8       29.68S
MARYSVILLE     CLOUDY    46  36  66 SW12      29.65S
OLATHE IND     CLOUDY    53  45  74 S13       29.71F
OLATHE EXE     CLOUDY    52  44  74 SW9       29.70F
SALINA         CLOUDY    46  38  73 S3        29.67F
TOPEKA BILLARD CLOUDY    50  39  66 S3        29.69F
TOPEKA FORBES  CLOUDY    51  40  65 S13       29.68S
$$



USA.gov is the U.S. government's official web portal to all federal, state and local government web resources and services.